TimeEST,TemperatureF,Dew PointF,Humidity,Sea Level PressureIn,VisibilityMPH,Wind Direction,Wind SpeedMPH,Gust SpeedMPH,PrecipitationIn,Events,Conditions,WindDirDegrees,DateUTC
12:19 AM,37.4,37.4,100,30.11,0.5,SSW,3.5,-,N/A,Fog,Fog,200,2013-01-13 05:19:00
12:29 AM,37.4,37.4,100,30.10,0.2,South,3.5,-,N/A,Fog,Fog,180,2013-01-13 05:29:00
12:53 AM,37.9,37.9,100,30.13,0.2,Calm,Calm,-,N/A,Fog,Fog,0,2013-01-13 05:53:00
1:18 AM,37.4,37.4,100,30.11,0.5,WSW,3.5,-,N/A,Fog,Fog,240,2013-01-13 06:18:00
1:44 AM,37.4,37.4,100,30.13,0.8,SW,3.5,-,N/A,,Overcast,220,2013-01-13 06:44:00
1:53 AM,37.0,37.0,100,30.15,0.8,Calm,Calm,-,N/A,,Overcast,0,2013-01-13 06:53:00
2:30 AM,35.6,35.6,100,30.12,0.2,Calm,Calm,-,N/A,Fog,Fog,0,2013-01-13 07:30:00
2:41 AM,37.4,37.4,100,30.12,0.5,Calm,Calm,-,N/A,Fog,Fog,0,2013-01-13 07:41:00
2:53 AM,37.9,37.0,97,30.13,0.5,SSE,4.6,-,N/A,Fog,Fog,160,2013-01-13 07:53:00
3:02 AM,37.4,37.4,100,30.12,0.2,South,3.5,-,N/A,Fog,Fog,180,2013-01-13 08:02:00
3:53 AM,35.1,35.1,100,30.12,0.2,East,3.5,-,N/A,Fog,Fog,90,2013-01-13 08:53:00
4:32 AM,33.8,33.8,100,30.07,0.2,Calm,Calm,-,N/A,Fog,Fog,0,2013-01-13 09:32:00
4:43 AM,35.6,35.6,100,30.08,0.2,Calm,Calm,-,N/A,Fog,Fog,0,2013-01-13 09:43:00
4:53 AM,34.0,34.0,100,30.10,0.2,Calm,Calm,-,N/A,Fog,Fog,0,2013-01-13 09:53:00
5:01 AM,35.6,35.6,100,30.07,0.5,Calm,Calm,-,N/A,Fog,Fog,0,2013-01-13 10:01:00
5:32 AM,35.6,35.6,100,30.06,0.5,Calm,Calm,-,N/A,Fog,Fog,0,2013-01-13 10:32:00
5:53 AM,35.1,35.1,100,30.08,0.5,Calm,Calm,-,N/A,Fog,Fog,0,2013-01-13 10:53:00
6:02 AM,35.6,35.6,100,30.06,0.2,Calm,Calm,-,N/A,Fog,Fog,0,2013-01-13 11:02:00
6:19 AM,35.6,35.6,100,30.07,0.5,Calm,Calm,-,N/A,Fog,Fog,0,2013-01-13 11:19:00
6:34 AM,35.6,35.6,100,30.08,0.5,Calm,Calm,-,N/A,Fog,Fog,0,2013-01-13 11:34:00
6:53 AM,34.0,34.0,100,30.10,0.5,Calm,Calm,-,N/A,Fog,Fog,0,2013-01-13 11:53:00
7:07 AM,35.6,33.8,93,30.07,0.2,Calm,Calm,-,N/A,Fog,Fog,0,2013-01-13 12:07:00
7:53 AM,35.1,35.1,100,30.10,0.2,Calm,Calm,-,N/A,Fog,Fog,0,2013-01-13 12:53:00
8:53 AM,36.0,35.1,97,30.10,0.2,Calm,Calm,-,N/A,Fog,Fog,0,2013-01-13 13:53:00
9:31 AM,37.4,37.4,100,30.07,0.2,South,3.5,-,N/A,Fog,Fog,170,2013-01-13 14:31:00
9:53 AM,37.9,37.9,100,30.08,0.2,SSE,4.6,-,N/A,Fog,Fog,160,2013-01-13 14:53:00
10:03 AM,37.4,37.4,100,30.06,0.2,SSE,4.6,-,N/A,Fog,Fog,160,2013-01-13 15:03:00
10:53 AM,39.0,39.0,100,30.07,0.2,Calm,Calm,-,N/A,Fog,Fog,0,2013-01-13 15:53:00
11:53 AM,39.9,39.0,97,30.04,0.2,SW,5.8,-,N/A,Fog,Fog,230,2013-01-13 16:53:00
12:00 PM,39.2,39.2,100,30.02,0.5,SW,6.9,-,N/A,Fog,Fog,230,2013-01-13 17:00:00
12:53 PM,41.0,39.9,96,30.01,0.2,SSW,4.6,-,N/A,Fog,Fog,200,2013-01-13 17:53:00
1:53 PM,41.0,39.9,96,29.98,0.2,SSW,4.6,-,N/A,Fog,Fog,200,2013-01-13 18:53:00
2:53 PM,42.1,41.0,96,29.96,0.2,Calm,Calm,-,N/A,Fog,Fog,0,2013-01-13 19:53:00
3:03 PM,42.8,41.0,93,29.93,0.8,SW,6.9,-,N/A,,Overcast,220,2013-01-13 20:03:00
3:12 PM,42.8,42.8,100,29.93,1.2,WSW,6.9,-,N/A,,Overcast,240,2013-01-13 20:12:00
3:26 PM,42.8,42.8,100,29.94,2.5,WSW,6.9,-,N/A,,Overcast,240,2013-01-13 20:26:00
3:38 PM,42.8,42.8,100,29.94,2.5,West,6.9,-,N/A,,Overcast,260,2013-01-13 20:38:00
3:51 PM,42.8,42.8,100,29.94,3.0,West,5.8,-,N/A,,Overcast,270,2013-01-13 20:51:00
3:53 PM,43.0,43.0,100,29.96,3.0,West,4.6,-,N/A,,Overcast,270,2013-01-13 20:53:00
4:53 PM,43.0,42.1,97,29.99,5.0,WSW,6.9,-,N/A,,Overcast,240,2013-01-13 21:53:00
5:50 PM,42.8,42.8,100,29.96,4.0,WSW,3.5,-,N/A,,Overcast,250,2013-01-13 22:50:00
5:53 PM,43.0,42.1,97,29.98,4.0,SW,4.6,-,N/A,,Overcast,230,2013-01-13 22:53:00
6:53 PM,44.1,42.1,93,30.00,5.0,SW,8.1,-,N/A,,Overcast,220,2013-01-13 23:53:00
7:53 PM,43.0,42.1,97,30.00,4.0,SW,3.5,-,N/A,,Overcast,220,2013-01-14 00:53:00
8:22 PM,42.8,42.8,100,29.97,2.0,SSW,8.1,-,N/A,,Overcast,210,2013-01-14 01:22:00
8:29 PM,42.8,42.8,100,29.96,1.5,SSW,6.9,-,N/A,,Overcast,210,2013-01-14 01:29:00
8:40 PM,42.8,42.8,100,29.96,1.2,SSW,9.2,-,N/A,,Overcast,210,2013-01-14 01:40:00
8:51 PM,42.8,42.8,100,29.95,0.8,SSW,6.9,-,N/A,,Overcast,210,2013-01-14 01:51:00
8:53 PM,43.0,42.1,97,29.97,0.8,SW,6.9,-,N/A,,Overcast,220,2013-01-14 01:53:00
9:38 PM,42.8,42.8,100,29.95,0.2,SW,6.9,-,N/A,Fog,Fog,220,2013-01-14 02:38:00
9:53 PM,43.0,42.1,97,29.97,0.8,SW,4.6,-,N/A,,Mist,230,2013-01-14 02:53:00
10:37 PM,42.8,42.8,100,29.96,0.2,SW,5.8,-,N/A,Fog,Fog,220,2013-01-14 03:37:00
10:45 PM,42.8,42.8,100,29.96,0.5,SW,5.8,-,N/A,Fog,Fog,220,2013-01-14 03:45:00
10:53 PM,43.0,42.1,97,29.98,0.5,SW,6.9,-,N/A,Fog,Fog,220,2013-01-14 03:53:00
11:19 PM,42.8,42.8,100,29.95,0.2,Calm,Calm,-,N/A,Fog,Fog,0,2013-01-14 04:19:00
11:34 PM,42.8,42.8,100,29.95,0.5,Calm,Calm,-,N/A,Fog,Fog,0,2013-01-14 04:34:00
11:42 PM,42.8,42.8,100,29.95,0.2,Calm,Calm,-,N/A,Fog,Fog,0,2013-01-14 04:42:00
11:53 PM,42.1,41.0,96,29.97,0.2,Calm,Calm,-,N/A,Fog,Fog,0,2013-01-14 04:53:00